Time,TemperatureF,DewpointF,PressureIn,WindDirection,WindDirectionDegrees,WindSpeedMPH,WindSpeedGustMPH,Humidity,HourlyPrecipIn,Conditions,Clouds,dailyrainin,SoftwareType,DateUTC
2013-03-08 00:00:00,33.1,23.7,30.21,South,185,3.6,7.6,68,0.00,,SKC,0.00,VWS V13.01,2013-03-08 06:00:00,
2013-03-08 00:10:00,33.1,23.7,30.21,SSW,193,2.7,6.3,68,0.00,,SKC,0.00,VWS V13.01,2013-03-08 06:10:00,
2013-03-08 00:20:00,33.1,23.7,30.21,SSW,208,0.0,6.3,68,0.00,,SKC,0.00,VWS V13.01,2013-03-08 06:20:00,
2013-03-08 00:30:00,33.3,23.9,30.21,South,179,3.1,6.3,68,0.00,,SKC,0.00,VWS V13.01,2013-03-08 06:30:00,
2013-03-08 00:40:00,33.3,23.5,30.21,South,179,2.7,6.7,67,0.00,,SKC,0.00,VWS V13.01,2013-03-08 06:40:00,
2013-03-08 00:50:00,33.3,23.5,30.21,South,181,4.9,6.3,67,0.00,,SKC,0.00,VWS V13.01,2013-03-08 06:50:00,
2013-03-08 01:00:00,33.3,23.5,30.21,SSW,199,0.0,5.4,67,0.00,,SKC,0.00,VWS V13.01,2013-03-08 07:00:00,
2013-03-08 01:10:00,33.1,23.3,30.21,SSW,203,0.0,5.4,67,0.00,,SKC,0.00,VWS V13.01,2013-03-08 07:10:00,
2013-03-08 01:20:00,32.7,23.0,30.21,SSW,198,3.6,5.4,67,0.00,,SKC,0.00,VWS V13.01,2013-03-08 07:20:00,
2013-03-08 01:30:00,32.5,23.2,30.21,SW,214,0.0,3.6,68,0.00,,SKC,0.00,VWS V13.01,2013-03-08 07:30:00,
2013-03-08 01:40:00,32.4,23.0,30.21,SSW,196,2.2,4.0,68,0.00,,SKC,0.00,VWS V13.01,2013-03-08 07:40:00,
2013-03-08 01:50:00,32.4,23.0,30.21,SSW,196,0.0,2.2,68,0.00,,SKC,0.00,VWS V13.01,2013-03-08 07:50:00,
2013-03-08 02:00:00,32.2,22.8,30.21,SSW,196,0.0,0.0,68,0.00,,SKC,0.00,VWS V13.01,2013-03-08 08:00:00,
2013-03-08 02:10:00,32.0,22.6,30.21,SSW,197,0.0,0.0,68,0.00,,SKC,0.00,VWS V13.01,2013-03-08 08:10:00,
2013-03-08 02:20:00,32.0,22.6,30.21,SSW,197,0.0,0.0,68,0.00,,SKC,0.00,VWS V13.01,2013-03-08 08:20:00,
2013-03-08 02:30:00,32.0,23.0,30.21,SSW,197,0.0,3.6,69,0.00,,SKC,0.00,VWS V13.01,2013-03-08 08:30:00,
2013-03-08 02:40:00,31.8,22.8,30.21,SSW,196,0.0,0.0,69,0.00,,SKC,0.00,VWS V13.01,2013-03-08 08:40:00,
2013-03-08 02:50:00,31.8,22.8,30.21,SSW,197,0.0,0.0,69,0.00,,SKC,0.00,VWS V13.01,2013-03-08 08:50:00,
2013-03-08 03:00:00,31.6,22.6,30.18,SSW,196,0.0,0.0,69,0.00,,SKC,0.00,VWS V13.01,2013-03-08 09:00:00,
2013-03-08 03:10:00,31.5,22.5,30.18,SSW,197,0.0,0.0,69,0.00,,SKC,0.00,VWS V13.01,2013-03-08 09:10:00,
2013-03-08 03:20:00,31.8,23.2,30.18,SSW,195,2.7,4.9,70,0.00,,SKC,0.00,VWS V13.01,2013-03-08 09:20:00,
2013-03-08 03:30:00,32.0,23.3,30.21,SSW,196,0.0,4.0,70,0.00,,SKC,0.00,VWS V13.01,2013-03-08 09:30:00,
2013-03-08 03:40:00,32.2,23.5,30.18,SSW,192,3.6,4.0,70,0.00,,SKC,0.00,VWS V13.01,2013-03-08 09:40:00,
2013-03-08 03:50:00,32.2,23.5,30.18,SSW,192,0.0,4.0,70,0.00,,SKC,0.00,VWS V13.01,2013-03-08 09:50:00,
2013-03-08 04:00:00,31.8,23.2,30.18,South,191,0.0,0.0,70,0.00,,SKC,0.00,VWS V13.01,2013-03-08 10:00:00,
2013-03-08 04:10:00,31.5,22.8,30.18,SSW,192,0.0,0.0,70,0.00,,SKC,0.00,VWS V13.01,2013-03-08 10:10:00,
2013-03-08 04:20:00,31.3,22.6,30.18,SSW,192,0.0,0.0,70,0.00,,SKC,0.00,VWS V13.01,2013-03-08 10:20:00,
2013-03-08 04:30:00,30.9,22.3,30.18,SSW,192,0.0,0.0,70,0.00,,SKC,0.00,VWS V13.01,2013-03-08 10:30:00,
2013-03-08 04:40:00,30.7,22.5,30.18,SSW,192,0.0,0.0,71,0.00,,SKC,0.00,VWS V13.01,2013-03-08 10:40:00,
2013-03-08 04:50:00,30.7,22.5,30.18,SSW,192,0.0,0.0,71,0.00,,SKC,0.00,VWS V13.01,2013-03-08 10:50:00,
2013-03-08 05:00:00,30.7,22.8,30.18,SSW,192,0.0,0.0,72,0.00,,SKC,0.00,VWS V13.01,2013-03-08 11:00:00,
2013-03-08 05:10:00,30.7,22.8,30.18,South,191,0.0,0.0,72,0.00,,SKC,0.00,VWS V13.01,2013-03-08 11:10:00,
2013-03-08 05:20:00,30.7,23.1,30.18,SSW,192,0.0,0.0,73,0.00,,SKC,0.00,VWS V13.01,2013-03-08 11:20:00,
2013-03-08 05:30:00,30.9,23.3,30.15,SSW,192,0.0,0.0,73,0.00,,SKC,0.00,VWS V13.01,2013-03-08 11:30:00,
2013-03-08 05:40:00,31.1,23.8,30.18,SSW,192,0.0,0.0,74,0.00,,SKC,0.00,VWS V13.01,2013-03-08 11:40:00,
2013-03-08 05:50:00,31.1,23.8,30.18,SSW,208,0.0,3.6,74,0.00,,SKC,0.00,VWS V13.01,2013-03-08 11:50:00,
2013-03-08 06:00:00,31.1,23.8,30.18,SSW,195,0.0,0.0,74,0.00,,SKC,0.00,VWS V13.01,2013-03-08 12:00:00,
2013-03-08 06:10:00,31.1,23.8,30.18,SSW,195,0.0,0.0,74,0.00,,SKC,0.00,VWS V13.01,2013-03-08 12:10:00,
2013-03-08 06:20:00,31.1,23.8,30.18,SSW,195,0.0,0.0,74,0.00,,SKC,0.00,VWS V13.01,2013-03-08 12:20:00,
2013-03-08 06:30:00,30.7,23.5,30.18,SSW,195,0.0,0.0,74,0.00,,SKC,0.00,VWS V13.01,2013-03-08 12:30:00,
2013-03-08 06:40:00,30.7,23.5,30.21,SSW,195,0.0,0.0,74,0.00,,SKC,0.00,VWS V13.01,2013-03-08 12:40:00,
2013-03-08 06:50:00,30.6,23.6,30.21,SSW,195,0.0,0.0,75,0.00,,SKC,0.00,VWS V13.01,2013-03-08 12:50:00,
2013-03-08 07:00:00,31.1,24.4,30.21,SSW,196,0.0,0.0,76,0.00,,SKC,0.00,VWS V13.01,2013-03-08 13:00:00,
2013-03-08 07:10:00,32.0,25.6,30.18,SSW,197,4.0,4.5,77,0.00,,SKC,0.00,VWS V13.01,2013-03-08 13:10:00,
2013-03-08 07:20:00,32.7,26.3,30.18,South,186,3.1,5.4,77,0.00,,SKC,0.00,VWS V13.01,2013-03-08 13:20:00,
2013-03-08 07:30:00,33.4,26.7,30.18,South,190,4.0,4.0,76,0.00,,SKC,0.00,VWS V13.01,2013-03-08 13:30:00,
2013-03-08 07:40:00,33.8,25.7,30.18,South,182,0.0,5.8,72,0.00,,SKC,0.00,VWS V13.01,2013-03-08 13:40:00,
2013-03-08 07:50:00,34.0,25.6,30.18,SSW,197,0.0,4.0,71,0.00,,SKC,0.00,VWS V13.01,2013-03-08 13:50:00,
2013-03-08 08:00:00,34.5,25.8,30.18,South,184,3.1,4.9,70,0.00,,SKC,0.00,VWS V13.01,2013-03-08 14:00:00,
2013-03-08 08:10:00,35.4,26.6,30.18,South,191,0.0,5.4,70,0.00,,SKC,0.00,VWS V13.01,2013-03-08 14:10:00,
2013-03-08 08:20:00,36.3,27.1,30.18,SSW,200,0.0,4.5,69,0.00,,SKC,0.00,VWS V13.01,2013-03-08 14:20:00,
2013-03-08 08:30:00,37.4,27.5,30.18,SSW,205,0.0,0.0,67,0.00,,SKC,0.00,VWS V13.01,2013-03-08 14:30:00,
2013-03-08 08:40:00,38.7,28.3,30.18,SSW,194,0.0,5.8,66,0.00,,SKC,0.00,VWS V13.01,2013-03-08 14:40:00,
2013-03-08 08:50:00,40.1,29.3,30.18,SSW,205,2.7,4.9,65,0.00,,SKC,0.00,VWS V13.01,2013-03-08 14:50:00,
2013-03-08 09:00:00,41.7,29.3,30.18,SSW,197,0.0,5.4,61,0.00,,SKC,0.00,VWS V13.01,2013-03-08 15:00:00,
2013-03-08 09:10:00,42.3,28.1,30.18,SSW,207,4.9,7.6,57,0.00,,SKC,0.00,VWS V13.01,2013-03-08 15:10:00,
2013-03-08 09:20:00,42.6,28.5,30.18,SSE,166,2.7,4.9,57,0.00,,SKC,0.00,VWS V13.01,2013-03-08 15:20:00,
2013-03-08 09:30:00,43.2,28.5,30.18,South,176,7.6,7.6,56,0.00,,SKC,0.00,VWS V13.01,2013-03-08 15:30:00,
2013-03-08 09:40:00,44.1,28.9,30.18,SSW,195,2.7,7.6,55,0.00,,SKC,0.00,VWS V13.01,2013-03-08 15:40:00,
2013-03-08 09:50:00,44.8,29.2,30.18,SSW,198,3.6,6.3,54,0.00,,SKC,0.00,VWS V13.01,2013-03-08 15:50:00,
2013-03-08 10:00:00,45.1,29.5,30.18,NNE,30,0.0,5.4,54,0.00,,SKC,0.00,VWS V13.01,2013-03-08 16:00:00,
2013-03-08 10:10:00,45.9,30.2,30.18,South,191,0.0,4.5,54,0.00,,SKC,0.00,VWS V13.01,2013-03-08 16:10:00,
2013-03-08 10:20:00,46.4,30.2,30.18,South,175,0.0,5.8,53,0.00,,SKC,0.00,VWS V13.01,2013-03-08 16:20:00,
2013-03-08 10:30:00,46.9,30.7,30.15,SSW,201,4.0,6.3,53,0.00,,SKC,0.00,VWS V13.01,2013-03-08 16:30:00,
2013-03-08 10:40:00,47.5,29.8,30.18,SSW,195,0.0,8.3,50,0.00,,SKC,0.00,VWS V13.01,2013-03-08 16:40:00,
2013-03-08 10:50:00,47.8,30.1,30.18,SSW,195,3.6,5.8,50,0.00,,SKC,0.00,VWS V13.01,2013-03-08 16:50:00,
2013-03-08 11:00:00,48.2,28.9,30.15,South,188,2.7,7.6,47,0.00,,SKC,0.00,VWS V13.01,2013-03-08 17:00:00,
2013-03-08 11:10:00,48.4,29.1,30.18,South,189,0.0,6.7,47,0.00,,SKC,0.00,VWS V13.01,2013-03-08 17:10:00,
2013-03-08 11:20:00,49.1,29.8,30.18,SSW,205,3.1,6.7,47,0.00,,SKC,0.00,VWS V13.01,2013-03-08 17:20:00,
2013-03-08 11:40:00,50.0,29.5,30.15,SSW,201,5.8,6.3,45,0.00,,SKC,0.00,VWS V13.01,2013-03-08 17:40:00,
2013-03-08 11:50:00,50.2,29.7,30.15,SSW,197,4.0,8.3,45,0.00,,SKC,0.00,VWS V13.01,2013-03-08 17:50:00,
2013-03-08 12:00:00,50.7,30.2,30.15,SSW,196,4.0,5.4,45,0.00,,SKC,0.00,VWS V13.01,2013-03-08 18:00:00,
2013-03-08 12:10:00,50.9,30.3,30.15,SW,233,4.9,6.3,45,0.00,,SKC,0.00,VWS V13.01,2013-03-08 18:10:00,
2013-03-08 12:20:00,50.4,29.8,30.15,SSW,203,4.0,7.6,45,0.00,,SKC,0.00,VWS V13.01,2013-03-08 18:20:00,
2013-03-08 12:30:00,50.5,30.0,30.15,SSW,201,0.0,6.3,45,0.00,,SKC,0.00,VWS V13.01,2013-03-08 18:30:00,
2013-03-08 12:40:00,51.4,30.8,30.15,SSW,201,2.7,7.6,45,0.00,,SKC,0.00,VWS V13.01,2013-03-08 18:40:00,
2013-03-08 12:50:00,51.6,31.0,30.15,SSW,203,6.3,8.3,45,0.00,,SKC,0.00,VWS V13.01,2013-03-08 18:50:00,
2013-03-08 13:00:00,51.6,29.3,30.12,SSW,200,0.0,8.3,42,0.00,,SKC,0.00,VWS V13.01,2013-03-08 19:00:00,
2013-03-08 13:10:00,52.3,31.1,30.12,SSW,195,4.9,6.3,44,0.00,,SKC,0.00,VWS V13.01,2013-03-08 19:10:00,
2013-03-08 13:20:00,52.0,29.6,30.12,East,83,2.2,8.7,42,0.00,,SKC,0.00,VWS V13.01,2013-03-08 19:20:00,
2013-03-08 13:30:00,52.0,30.8,30.12,SSW,200,2.2,5.4,44,0.00,,SKC,0.00,VWS V13.01,2013-03-08 19:30:00,
2013-03-08 13:40:00,52.2,30.9,30.12,SSW,193,3.1,8.3,44,0.00,,SKC,0.00,VWS V13.01,2013-03-08 19:40:00,
2013-03-08 13:50:00,52.2,30.9,30.12,SSW,192,4.9,7.6,44,0.00,,SKC,0.00,VWS V13.01,2013-03-08 19:50:00,
2013-03-08 14:00:00,51.4,30.8,30.12,SSW,200,3.1,7.6,45,0.00,,SKC,0.00,VWS V13.01,2013-03-08 20:00:00,
2013-03-08 14:10:00,50.7,30.2,30.12,SSW,192,3.1,8.1,45,0.00,,SKC,0.00,VWS V13.01,2013-03-08 20:10:00,
2013-03-08 14:20:00,49.8,30.4,30.12,SSE,157,4.0,8.7,47,0.00,,SKC,0.00,VWS V13.01,2013-03-08 20:20:00,
2013-03-08 14:30:00,48.9,29.6,30.12,SSW,208,6.3,8.3,47,0.00,,SKC,0.00,VWS V13.01,2013-03-08 20:30:00,
2013-03-08 14:40:00,48.2,31.4,30.09,SSW,193,3.1,9.6,52,0.00,,SKC,0.00,VWS V13.01,2013-03-08 20:40:00,
2013-03-08 14:50:00,47.7,31.4,30.09,South,183,0.0,10.5,53,0.00,,SKC,0.00,VWS V13.01,2013-03-08 20:50:00,
2013-03-08 15:00:00,47.3,31.0,30.09,SSW,200,0.0,7.6,53,0.00,,SKC,0.00,VWS V13.01,2013-03-08 21:00:00,
2013-03-08 15:10:00,46.9,30.7,30.09,SSW,196,5.8,8.7,53,0.00,,SKC,0.00,VWS V13.01,2013-03-08 21:10:00,
2013-03-08 15:20:00,46.6,30.8,30.09,SSE,150,5.4,10.1,54,0.00,,SKC,0.00,VWS V13.01,2013-03-08 21:20:00,
2013-03-08 15:30:00,46.6,30.8,30.09,SSW,205,8.3,8.7,54,0.00,,SKC,0.00,VWS V13.01,2013-03-08 21:30:00,
2013-03-08 15:40:00,46.4,30.7,30.09,SSW,203,3.6,8.7,54,0.00,,SKC,0.00,VWS V13.01,2013-03-08 21:40:00,
2013-03-08 15:50:00,46.0,30.8,30.09,WSW,244,3.1,10.1,55,0.00,,SKC,0.00,VWS V13.01,2013-03-08 21:50:00,
2013-03-08 16:00:00,46.0,30.8,30.09,SSW,200,3.1,8.1,55,0.00,,SKC,0.00,VWS V13.01,2013-03-08 22:00:00,
2013-03-08 16:10:00,46.0,30.8,30.06,SSW,210,8.1,8.1,55,0.00,,SKC,0.00,VWS V13.01,2013-03-08 22:10:00,
2013-03-08 16:20:00,45.9,30.6,30.06,SSW,206,4.9,10.5,55,0.00,,SKC,0.00,VWS V13.01,2013-03-08 22:20:00,
2013-03-08 16:30:00,45.5,30.3,30.06,South,184,4.9,10.5,55,0.00,,SKC,0.00,VWS V13.01,2013-03-08 22:30:00,
2013-03-08 16:40:00,45.0,29.8,30.06,SSW,204,3.6,10.1,55,0.00,,SKC,0.00,VWS V13.01,2013-03-08 22:40:00,
2013-03-08 16:50:00,44.6,29.5,30.06,SSE,153,5.8,8.1,55,0.00,,SKC,0.00,VWS V13.01,2013-03-08 22:50:00,
2013-03-08 17:00:00,44.6,29.5,30.06,SSW,205,0.0,8.3,55,0.00,,SKC,0.00,VWS V13.01,2013-03-08 23:00:00,
2013-03-08 17:10:00,44.4,29.7,30.06,SSW,194,0.0,7.6,56,0.00,,SKC,0.00,VWS V13.01,2013-03-08 23:10:00,
2013-03-08 17:20:00,44.4,29.7,30.06,SSW,201,2.2,7.6,56,0.00,,SKC,0.00,VWS V13.01,2013-03-08 23:20:00,
2013-03-08 17:30:00,44.2,29.5,30.06,SSW,209,5.4,8.1,56,0.00,,SKC,0.00,VWS V13.01,2013-03-08 23:30:00,
2013-03-08 17:40:00,44.2,29.5,30.06,SSW,208,0.0,9.6,56,0.00,,SKC,0.00,VWS V13.01,2013-03-08 23:40:00,
2013-03-08 17:50:00,44.2,29.5,30.06,SSW,194,5.8,8.1,56,0.00,,SKC,0.00,VWS V13.01,2013-03-08 23:50:00,
2013-03-08 18:00:00,44.2,29.5,30.06,SSW,192,3.1,8.1,56,0.00,,SKC,0.00,VWS V13.01,2013-03-09 00:00:00,
2013-03-08 18:10:00,44.2,29.5,30.06,SSW,196,4.0,7.6,56,0.00,,SKC,0.00,VWS V13.01,2013-03-09 00:10:00,
2013-03-08 18:20:00,44.1,29.8,30.06,SE,146,4.0,7.6,57,0.00,,SKC,0.00,VWS V13.01,2013-03-09 00:20:00,
2013-03-08 18:30:00,44.2,30.0,30.06,South,185,5.4,6.3,57,0.00,,SKC,0.00,VWS V13.01,2013-03-09 00:30:00,
2013-03-08 18:40:00,44.2,30.0,30.06,SSE,164,3.1,8.3,57,0.00,,SKC,0.00,VWS V13.01,2013-03-09 00:40:00,
2013-03-08 18:50:00,44.4,30.2,30.06,SSW,198,3.6,6.3,57,0.00,,SKC,0.00,VWS V13.01,2013-03-09 00:50:00,
2013-03-08 19:00:00,44.4,29.7,30.06,South,179,0.0,6.3,56,0.00,,SKC,0.00,VWS V13.01,2013-03-09 01:00:00,
2013-03-08 19:10:00,44.6,29.9,30.06,SSW,194,3.1,8.3,56,0.00,,SKC,0.00,VWS V13.01,2013-03-09 01:10:00,
2013-03-08 19:20:00,44.6,29.9,30.06,SSW,206,0.0,7.6,56,0.00,,SKC,0.00,VWS V13.01,2013-03-09 01:20:00,
2013-03-08 19:30:00,44.6,29.9,30.06,SW,223,3.6,8.3,56,0.00,,SKC,0.00,VWS V13.01,2013-03-09 01:30:00,
2013-03-08 19:40:00,44.6,29.9,30.06,NNE,30,3.1,6.3,56,0.00,,SKC,0.00,VWS V13.01,2013-03-09 01:40:00,
2013-03-08 19:50:00,44.6,29.9,30.06,South,189,4.0,8.3,56,0.00,,SKC,0.00,VWS V13.01,2013-03-09 01:50:00,
2013-03-08 20:00:00,44.6,29.9,30.06,SW,229,0.0,8.7,56,0.00,,SKC,0.00,VWS V13.01,2013-03-09 02:00:00,
2013-03-08 20:10:00,44.6,30.3,30.06,SSW,192,0.0,6.3,57,0.00,,SKC,0.00,VWS V13.01,2013-03-09 02:10:00,
2013-03-08 20:20:00,44.8,30.5,30.06,South,188,0.0,8.3,57,0.00,,SKC,0.00,VWS V13.01,2013-03-09 02:20:00,
2013-03-08 20:30:00,45.1,30.8,30.03,South,172,2.7,7.6,57,0.00,,SKC,0.00,VWS V13.01,2013-03-09 02:30:00,
2013-03-08 20:40:00,45.3,31.0,30.03,SSW,204,0.0,5.4,57,0.00,,SKC,0.00,VWS V13.01,2013-03-09 02:40:00,
2013-03-08 20:50:00,45.3,31.0,30.03,SSW,194,0.0,7.6,57,0.00,,SKC,0.00,VWS V13.01,2013-03-09 02:50:00,
2013-03-08 21:00:00,45.1,31.3,30.03,SSW,200,0.0,7.2,58,0.00,,SKC,0.00,VWS V13.01,2013-03-09 03:00:00,
2013-03-08 21:10:00,45.1,31.7,30.03,SSW,210,0.0,8.3,59,0.00,,SKC,0.00,VWS V13.01,2013-03-09 03:10:00,
2013-03-08 21:20:00,45.3,32.3,30.00,SSW,192,0.0,5.4,60,0.00,,SKC,0.00,VWS V13.01,2013-03-09 03:20:00,
2013-03-08 21:30:00,45.5,32.0,30.00,SSW,194,0.0,8.3,59,0.00,,SKC,0.00,VWS V13.01,2013-03-09 03:30:00,
2013-03-08 21:40:00,45.7,32.2,30.03,South,179,0.0,4.0,59,0.00,,SKC,0.00,VWS V13.01,2013-03-09 03:40:00,
2013-03-08 21:50:00,45.9,32.4,30.03,SSW,211,0.0,4.0,59,0.00,,SKC,0.00,VWS V13.01,2013-03-09 03:50:00,
2013-03-08 22:00:00,45.9,31.9,30.03,South,185,0.0,3.6,58,0.00,,SKC,0.00,VWS V13.01,2013-03-09 04:00:00,
2013-03-08 22:10:00,45.9,32.4,30.03,SSW,194,0.0,4.0,59,0.00,,SKC,0.00,VWS V13.01,2013-03-09 04:10:00,
2013-03-08 22:20:00,46.2,32.7,30.03,SSE,155,0.0,3.1,59,0.00,,SKC,0.00,VWS V13.01,2013-03-09 04:20:00,
2013-03-08 22:30:00,46.8,32.3,30.03,WSW,241,0.0,6.3,57,0.00,,SKC,0.00,VWS V13.01,2013-03-09 04:30:00,
2013-03-08 22:40:00,46.6,33.0,30.03,South,184,0.0,4.9,59,0.00,,SKC,0.00,VWS V13.01,2013-03-09 04:40:00,
2013-03-08 22:50:00,45.9,34.4,30.03,WSW,250,0.0,7.6,64,0.00,,SKC,0.00,VWS V13.01,2013-03-09 04:50:00,
2013-03-08 23:00:00,45.3,33.9,30.00,SSW,208,0.0,6.3,64,0.00,,SKC,0.00,VWS V13.01,2013-03-09 05:00:00,
2013-03-08 23:10:00,45.0,34.3,30.00,SSW,193,0.0,7.6,66,0.00,,SKC,0.00,VWS V13.01,2013-03-09 05:10:00,
2013-03-08 23:20:00,44.8,34.1,30.00,SSW,195,0.0,7.6,66,0.00,,SKC,0.00,VWS V13.01,2013-03-09 05:20:00,
2013-03-08 23:30:00,44.8,34.1,29.97,SSW,206,0.0,5.8,66,0.00,,SKC,0.00,VWS V13.01,2013-03-09 05:30:00,
2013-03-08 23:40:00,44.8,34.1,30.00,South,185,0.0,4.9,66,0.00,,SKC,0.00,VWS V13.01,2013-03-09 05:40:00,
2013-03-08 23:50:00,45.0,34.3,30.00,SSW,192,0.0,5.4,66,0.00,,SKC,0.00,VWS V13.01,2013-03-09 05:50:00,